This is the latest recevied weather packets stored in our database for station/object AB4KN. If no packets are shown the sender has not sent any weather packets the latest 10 day(s).
| Time | Temp. | Humidity | Pressure | Rain* | Wind** | Luminosity | Snow |
|---|---|---|---|---|---|---|---|
| 1777820566 | 15.56° C | 52% | 1026.2 hPa | 0 mm | - | 31 W/m² | - |
| 1777820263 | 15° C | 52% | 1026 hPa | 0 mm | - | 30 W/m² | - |
| 1777819960 | 15° C | 57% | 1026.1 hPa | 0 mm | - | 29 W/m² | - |
| 1777819658 | 15° C | 57% | 1025.9 hPa | 0 mm | - | 29 W/m² | - |
| 1777819356 | 15° C | 58% | 1026.1 hPa | 0 mm | - | 27 W/m² | - |
| 1777819052 | 14.44° C | 58% | 1025.9 hPa | 0 mm | - | 27 W/m² | - |
| 1777818749 | 14.44° C | 57% | 1025.9 hPa | 0 mm | - | 25 W/m² | - |
| 1777818446 | 13.89° C | 60% | 1025.8 hPa | 0 mm | - | 25 W/m² | - |
| 1777818143 | 13.89° C | 60% | 1026 hPa | 0 mm | - | 24 W/m² | - |
| 1777817839 | 13.89° C | 59% | 1025.8 hPa | 0 mm | - | 23 W/m² | - |
| 1777817537 | 13.89° C | 65% | 1025.8 hPa | 0 mm | - | 23 W/m² | - |
| 1777817233 | 13.33° C | 64% | 1025.7 hPa | 0 mm | - | 23 W/m² | - |
| 1777816931 | 13.33° C | 66% | 1025.6 hPa | 0 mm | - | 22 W/m² | - |
| 1777816627 | 12.78° C | 66% | 1025.6 hPa | 0 mm | - | 21 W/m² | - |
| 1777816324 | 12.78° C | 66% | 1025.7 hPa | 0 mm | - | 21 W/m² | - |
| 1777816022 | 12.78° C | 66% | 1025.7 hPa | 0 mm | - | 20 W/m² | - |
| 1777815719 | 12.22° C | 67% | 1025.6 hPa | 0 mm | - | 20 W/m² | - |
| 1777815416 | 12.22° C | 68% | 1025.7 hPa | 0 mm | - | 19 W/m² | - |
| 1777815113 | 12.22° C | 69% | 1025.7 hPa | 0 mm | - | 19 W/m² | - |
| 1777814809 | 11.67° C | 70% | 1025.8 hPa | 0 mm | - | 19 W/m² | - |
| 1777814506 | 11.67° C | 71% | 1025.7 hPa | 0 mm | - | 18 W/m² | - |
| 1777814203 | 11.67° C | 74% | 1025.7 hPa | 0 mm | - | 17 W/m² | - |
| 1777813900 | 11.11° C | 74% | 1025.8 hPa | 0 mm | - | 17 W/m² | - |
| 1777813598 | 11.11° C | 73% | 1025.6 hPa | 0 mm | - | 16 W/m² | - |
| 1777813295 | 11.11° C | 73% | 1025.4 hPa | 0 mm | - | 16 W/m² | - |
* Rain latest hour (hover to see other rain measurements)
** Current wind speed in m/s (hover to see current wind gust speed)